SCP
-0 -0 -0 -0 -0 -0 -0 -0 -0 -0 -0 -0 -0 -0 0 0 -0 -0 -0 -0 -0 -0 -0 -0 -0 -0 -0 -0 -0 -0 -0 -0 -0 -0 -0 -0 -0 0 0 0 -0 -0 0
-1 -0 -0 -0 -0 -0 -0 0 0 0 0 -0 0 0 0 -0 0 -0 -0 -0 -0 -0 -0 -0 -0 -0 -0 -0 -0 -0 -0 -0 -0 -0 -0 0 -0 -0 -0 0 0 0 0
-0 -0 -0 -0 -0 -0 -0 0 0 0 -0 0 0 0 0 0 -0 -0 -0 -0 -0 -0 -0 -0 -0 -0 -0 -0 -0 -0 -0 -0 -0 -0 -0 0 0 0 0 0 0 0 0
-0 -0 -0 -0 -0 -0 -0 0 0 0 -0 -0 0 0 0 -0 -0 -0 -0 -0 -0 -0 -0 -0 -0 -0 -0 -0 -0 -0 -0 -0 -0 -0 0 0 -0 0 0 0 0 0 0
-0 -0 -0 -0 -0 -0 -0 -0 0 -0 -0 -0 -0 -0 -0 -0 -0 -0 -0 -0 -0 -0 -0 -0 -0 -0 -0 -0 -0 -0 -0 -0 -0 -0 0 -0 0 -0 -0 0 0 0 0
-0 -0 -0 -0 -0 -0 -0 -0 -0 -0 -0 -0 -0 -0 -0 -0 -0 0 0 0 -0 -0 -0 -0 -0 -0 -0 -0 -0 -0 -0 -0 -0 0 -0 -0 -0 -0 -0 -0 -0 -0 -0
-0 -0 -0 -0 -0 -0 -0 -0 -0 -0 -0 -0 -0 -0 -0 0 0 0 0 0 0 0 -0 -0 -0 -0 -0 -0 -0 -0 -0 -0 0 -0 -0 0 -0 -0 -0 -0 -0 -0 -0
-0 -0 -0 -0 -0 -0 -0 -0 -0 -0 -0 -0 0 0 0 0 0 0 0 0 0 0 -0 0 0 -0 -0 -0 -0 -0 -0 -0 0 -0 0 -0 -0 -0 -0 -0 -0 -0 -0
-0 -0 -0 -0 -0 -0 -0 -0 -0 -0 -0 0 0 0 0 0 0 0 0 0 0 -0 -0 -0 -0 -0 0 0 0 -0 -0 -0 -0 -0 -0 0 -0 -0 -0 -0 -0 -0 -0
-0 -0 -0 -0 -0 -0 -0 -0 -0 -0 0 0 0 0 0 0 0 0 0 0 -0 -0 -0 -0 -0 -0 -0 0 0 0 0 -0 -0 -0 -0 0 -0 -0 -0 -0 -0 -0 -0
0 -0 -0 -0 -0 -0 -0 -0 -0 0 0 0 0 0 0 0 0 0 0 0 -0 -0 -0 -0 0 0 -0 -0 -0 0 -0 -0 -0 -0 0 -0 -0 -0 -0 -0 -0 -0 -0
0 0 -0 0 -0 -0 0 -0 0 0 0 0 0 0 0 0 0 0 0 0 -0 -0 -0 -0 0 0 0 0 -0 0 0 -0 -0 -0 0 -0 -0 -0 -0 -0 -0 -0 -0
0 -0 0 0 -0 -0 0 -0 -0 -0 -0 0 0 0 0 0 0 0 0 0 0 -0 -0 -0 0 0 0 0 0 0 -0 0 -0 0 -0 -0 -0 -0 -0 -0 -0 -0 -0
0 0 0 0 -0 0 0 -0 0 0 0 0 0 0 0 0 0 0 0 0 0 0 -0 0 -0 0 0 0 0 0 0 0 0 0 0 -0 -0 -0 -0 -0 -0 -0 -0
0 0 0 0 0 1 0 1 0 0 0 0 0 0 0 0 0 0 0 0 0 0 0 0 0 -0 0 0 0 0 0 0 0 0 0 -0 0 0 0 0 0 0 0
0 0 0 0 0 1 1 1 1 1 1 1 0 0 0 0 0 0 0 0 0 0 0 0 0 -0 0 0 0 0 0 0 0 0 0 0 0 0 0 0 0 0 0
0 0 0 0 0 1 1 1 1 1 0 0 0 0 0 0 0 0 0 0 0 0 0 0 0 -0 0 0 0 0 0 0 0 0 0 0 0 0 0 0 0 0 0
0 0 0 0 0 1 2 1 1 0 1 0 0 0 0 0 0 0 0 0 0 0 0 0 0 -0 0 0 0 0 0 0 0 0 0 0 0 0 0 0 0 0 0
1 1 1 0 0 1 2 1 1 0 0 0 0 0 0 0 0 0 0 0 0 0 0 0 0 0 0 0 0 0 0 0 0 0 0 0 0 0 0 0 0 0 0
1 1 1 1 1 1 1 1 0 0 0 0 0 0 0 0 0 0 0 0 0 0 0 0 0 0 0 0 -0 0 0 0 0 0 0 0 0 0 0 0 0 0 0
1 1 1 2 3 3 1 1 0 0 0 0 0 0 0 0 0 0 0 0 0 0 0 0 0 0 0 0 0 0 0 0 0 0 0 0 0 0 0 0 0 0 0
2 2 2 2 2 2 1 1 1 0 0 0 0 0 0 0 0 0 0 0 0 0 0 0 0 0 0 0 0 0 0 0 0 0 0 0 0 0 0 0 0 0 0
3 3 2 2 2 2 1 1 0 0 0 0 0 0 0 0 0 0 0 0 0 0 0 0 0 0 0 0 0 0 0 0 0 0 0 0 0 0 0 0 0 0 0
2 2 1 1 1 1 2 1 0 0 0 0 0 0 0 0 0 -0 0 0 0 0 0 0 0 0 0 0 0 0 0 0 0 0 0 0 0 -0 0 0 0 0 0
1 1 1 0 1 1 1 1 0 0 0 0 0 0 0 0 -0 -0 -0 0 0 0 0 0 0 0 0 0 0 0 0 0 0 0 0 0 0 0 0 0 0 0 0
0 0 0 0 1 0 0 0 0 0 0 0 0 0 0 0 -0 -0 0 0 0 0 0 0 0 0 0 0 0 0 0 0 0 0 0 0 0 0 0 0 0 0 0
Wind_Speed_500mb
28 30 26 22 21 20 19 18 17 16 15 14 14 13 15 16 15 19 19 19 20 20 20 21 21 19 18 17 16 15 14 14 15 15 13 9 12 13 11 7 12 13 14
34 27 29 24 22 20 18 17 17 15 16 16 14 15 15 16 17 17 18 18 18 19 20 20 20 20 20 19 18 17 17 17 18 22 25 11 7 10 19 11 6 11 15
28 31 30 26 23 20 18 17 16 16 18 14 13 12 13 14 15 16 18 20 22 23 22 22 22 22 21 20 19 18 17 17 19 20 21 32 8 3 11 17 13 9 10
28 32 33 29 23 20 18 17 16 16 14 12 10 9 12 14 16 17 18 19 20 21 21 22 22 21 21 20 17 15 15 16 21 22 31 23 12 12 12 14 8 11 10
33 30 33 26 22 19 19 18 18 14 10 8 9 11 13 14 15 16 17 19 21 23 24 23 22 21 19 18 17 16 16 24 25 24 14 9 8 13 19 13 5 6 6
37 28 33 26 22 20 19 19 16 11 9 9 8 9 10 13 14 16 20 23 25 26 27 26 24 23 20 18 18 17 20 24 31 19 11 4 11 13 18 7 1 3 4
44 21 29 26 23 22 23 18 14 10 7 6 8 9 12 15 17 20 23 24 25 27 27 26 24 23 23 23 22 23 31 26 39 8 2 6 6 14 11 6 5 3 2
35 24 30 26 22 21 22 18 14 11 7 8 8 10 15 16 18 20 21 23 24 27 26 25 26 27 26 26 27 36 34 30 35 10 11 18 20 12 11 8 5 3 2
36 26 28 25 22 22 19 16 12 9 8 8 11 13 15 21 19 20 19 24 26 27 26 27 29 36 40 39 40 36 38 44 18 15 15 18 18 18 14 10 10 8 6
34 31 28 19 21 16 18 17 11 9 9 9 11 18 20 27 30 21 32 28 27 30 30 33 35 36 47 42 36 34 28 30 21 14 24 17 15 16 16 14 12 13 12
39 30 35 25 20 24 12 15 10 8 7 8 11 22 25 21 21 20 30 32 33 32 37 33 36 35 32 33 36 28 28 14 16 17 23 22 20 18 17 16 15 13 14
31 32 38 28 24 35 17 5 8 14 13 15 13 18 12 9 12 23 28 28 30 34 30 28 27 28 25 31 13 21 9 11 21 17 24 24 26 26 24 22 19 19 18
34 33 34 33 27 37 20 6 9 9 10 8 8 12 16 3 10 17 28 26 30 24 29 21 12 17 18 20 16 18 19 17 17 19 22 22 26 24 23 19 16 20 17
36 32 33 37 35 28 21 18 21 22 12 6 10 2 5 10 6 7 8 2 12 16 6 7 17 21 19 18 13 13 19 12 17 22 13 14 17 23 25 18 25 21 22
36 40 33 44 50 35 24 34 30 32 24 31 18 14 14 16 8 5 7 4 3 3 13 4 8 9 12 9 13 17 14 19 11 16 19 16 9 9 19 19 26 22 21
43 48 37 45 56 50 36 40 42 37 37 33 29 10 9 15 4 2 10 5 7 3 8 3 3 5 6 11 13 9 15 11 18 14 19 20 22 19 9 12 15 20 24
47 49 53 45 48 50 46 41 37 36 29 28 20 11 12 14 4 11 4 5 8 17 12 12 8 8 2 3 8 8 14 11 14 19 10 19 20 25 21 19 18 21 24
45 52 53 40 41 47 46 36 24 22 33 18 16 11 10 9 8 10 6 7 14 8 5 1 3 6 6 7 9 4 7 6 9 6 14 11 16 16 21 23 24 29 32
40 47 48 42 38 40 37 29 34 36 29 22 17 15 10 8 8 8 10 8 7 8 6 7 10 14 9 14 12 14 14 3 6 3 7 2 7 12 18 20 18 18 27
37 39 40 37 39 35 41 43 41 35 26 22 16 11 11 9 8 8 2 7 1 10 7 13 18 15 19 13 14 18 20 7 9 12 2 6 8 1 11 18 20 11 22
35 32 37 39 45 48 43 39 41 23 24 20 16 25 24 20 14 3 5 12 4 10 21 22 24 15 10 16 22 16 26 24 28 20 9 6 14 10 19 10 14 15 24
39 33 33 38 43 46 38 37 33 25 22 27 32 30 35 31 18 3 3 10 9 15 17 24 19 17 11 17 19 25 21 27 26 23 24 14 11 21 11 18 11 21 12
43 44 34 36 42 42 37 37 37 32 27 35 35 32 36 34 20 30 12 12 11 15 12 17 13 20 16 5 19 15 10 15 12 28 28 18 22 27 17 19 10 14 20
31 33 34 30 32 30 37 43 35 24 34 34 27 27 30 32 32 29 27 17 11 21 14 21 14 16 13 8 9 20 15 24 10 8 10 20 19 5 7 9 8 12 15
24 23 20 22 25 25 27 27 19 23 16 33 22 18 24 31 35 21 32 21 12 20 25 21 21 17 10 12 3 11 11 17 14 19 23 14 19 12 13 6 11 14 12
8 11 16 17 16 16 15 19 26 15 22 30 18 20 27 25 25 26 26 22 18 21 18 17 25 17 25 19 19 11 9 15 17 12 16 24 13 20 26 18 10 6 13
Wind_Direction_500mb
151 155 148 142 133 119 111 108 106 102 94 84 75 71 72 65 52 39 35 29 24 20 19 14 11 8 6 7 5 6 10 21 28 32 33 41 44 22 22 49 44 352 9
158 150 149 144 134 122 117 109 104 104 98 90 82 69 55 45 38 29 24 22 21 20 17 11 3 357 353 352 353 352 355 10 26 49 52 30 356 25 8 326 338 4 15
153 154 149 146 135 125 114 110 107 103 101 108 82 59 41 30 28 27 28 21 18 9 6 358 352 345 341 340 341 344 350 6 27 48 45 20 205 37 14 340 321 346 345
133 158 147 144 132 124 122 120 113 110 108 86 63 42 27 29 35 36 29 21 11 3 359 354 348 345 341 339 340 346 2 29 58 63 35 59 83 31 351 336 340 356 335
132 157 143 141 132 131 126 121 122 129 114 80 43 29 40 47 43 28 20 17 11 5 2 359 352 353 351 347 350 4 41 86 78 44 3 272 357 318 335 340 280 324 338
137 158 145 139 133 132 132 123 134 132 97 59 38 52 61 47 28 18 18 16 12 7 5 5 3 2 1 6 18 38 80 89 43 24 147 263 330 312 330 349 41 238 260
152 154 148 145 141 138 130 140 144 115 84 68 73 64 44 30 19 18 20 17 14 12 12 13 15 12 10 18 37 69 91 87 57 98 4 48 356 352 351 33 75 141 220
151 162 157 147 139 135 130 151 120 112 87 77 72 45 30 23 18 18 22 17 17 19 20 24 30 32 34 45 66 97 82 66 56 39 10 11 341 3 14 19 34 24 338
133 149 153 148 143 143 152 134 127 108 97 78 53 40 29 28 13 18 26 15 20 27 33 41 53 52 52 70 84 92 79 58 85 99 59 30 17 33 37 33 28 17 350
143 140 145 158 150 160 160 148 132 109 88 66 54 49 52 29 9 15 13 10 26 38 46 57 60 59 58 67 78 81 56 67 72 37 4 39 16 15 18 31 24 11 357
152 149 155 147 142 150 167 144 132 110 77 61 61 61 54 33 356 337 11 19 38 48 53 61 56 51 50 52 56 62 60 75 44 26 48 49 47 40 39 40 37 34 13
158 160 153 144 156 165 180 125 121 65 75 56 29 70 31 219 213 315 1 10 28 29 40 40 45 41 33 42 21 41 89 330 335 45 66 69 70 64 63 69 72 78 71
160 152 154 146 158 167 184 113 65 84 114 217 215 106 218 274 333 360 346 4 11 9 23 21 356 72 72 75 55 53 15 354 25 31 76 70 66 69 71 64 71 70 55
163 163 165 157 168 151 168 130 162 190 186 212 211 151 66 58 291 199 229 46 12 329 12 352 360 59 83 68 58 69 60 45 15 35 38 48 67 73 72 60 69 56 43
166 168 174 172 178 173 175 166 181 190 174 201 226 204 207 193 234 256 295 65 226 37 350 13 349 83 36 68 90 74 68 60 47 16 43 40 25 56 83 71 61 38 18
176 180 187 192 185 187 164 194 189 189 202 211 211 224 229 230 201 115 46 66 327 250 218 186 196 76 41 37 40 72 88 100 79 7 11 28 40 26 5 41 37 20 8
185 188 191 192 193 190 186 197 209 213 211 217 235 250 270 242 197 146 161 104 280 272 252 221 197 111 117 333 74 44 55 67 128 90 6 17 18 16 43 33 27 33 43
187 199 199 188 195 194 192 205 186 211 219 232 253 262 295 252 236 143 115 222 245 275 16 215 162 277 216 231 237 140 28 61 36 113 151 93 2 15 8 24 35 26 24
191 204 201 185 203 201 195 186 197 225 227 240 250 269 294 263 243 192 166 246 311 152 235 226 248 216 251 231 254 219 172 177 144 203 95 20 121 337 346 2 2 21 20
198 201 196 188 208 203 204 198 209 223 239 260 253 242 247 232 234 151 212 345 284 114 260 231 223 217 215 223 259 191 177 224 219 262 19 215 303 118 311 339 330 340 358
193 196 189 189 209 219 216 212 223 236 258 279 258 228 223 188 214 143 31 333 63 153 233 233 246 245 226 247 234 249 280 280 220 209 245 195 279 315 277 251 312 4 335
192 197 210 202 214 221 228 229 239 241 276 276 279 245 231 206 193 33 325 245 251 221 256 259 229 198 255 266 252 264 278 243 242 203 205 226 271 246 270 270 249 293 274
200 194 213 207 221 229 238 247 245 255 282 277 279 259 238 226 204 215 318 257 273 220 273 289 255 207 200 234 293 254 330 7 321 214 205 253 238 264 236 252 327 292 309
183 186 212 221 239 241 237 259 260 253 291 291 291 269 243 231 257 231 265 275 240 196 235 263 227 218 247 215 282 322 264 293 318 318 270 235 274 303 206 309 266 291 303
161 192 222 231 246 244 244 245 251 274 258 281 296 240 236 253 243 221 248 258 256 229 231 230 227 239 200 213 221 300 293 306 297 295 298 283 286 241 253 231 264 318 347
159 214 248 238 205 215 243 260 237 237 262 287 282 240 265 246 235 231 242 255 253 233 255 244 240 231 206 216 220 224 248 302 313 299 304 306 294 300 258 265 293 295 265
Wind_Speed_850mb
28 30 26 22 21 20 19 18 17 16 15 14 14 13 15 16 15 19 19 19 20 20 20 21 21 19 18 17 16 15 14 14 15 15 13 9 12 13 11 7 12 13 14
34 27 29 24 22 20 18 17 17 15 16 16 14 15 15 16 17 17 18 18 18 19 20 20 20 20 20 19 18 17 17 17 18 22 25 11 7 10 19 11 6 11 15
28 31 30 26 23 20 18 17 16 16 18 14 13 12 13 14 15 16 18 20 22 23 22 22 22 22 21 20 19 18 17 17 19 20 21 32 8 3 11 17 13 9 10
28 32 33 29 23 20 18 17 16 16 14 12 10 9 12 14 16 17 18 19 20 21 21 22 22 21 21 20 17 15 15 16 21 22 31 23 12 12 12 14 8 11 10
33 30 33 26 22 19 19 18 18 14 10 8 9 11 13 14 15 16 17 19 21 23 24 23 22 21 19 18 17 16 16 24 25 24 14 9 8 13 19 13 5 6 6
37 28 33 26 22 20 19 19 16 11 9 9 8 9 10 13 14 16 20 23 25 26 27 26 24 23 20 18 18 17 20 24 31 19 11 4 11 13 18 7 1 3 4
44 21 29 26 23 22 23 18 14 10 7 6 8 9 12 15 17 20 23 24 25 27 27 26 24 23 23 23 22 23 31 26 39 8 2 6 6 14 11 6 5 3 2
35 24 30 26 22 21 22 18 14 11 7 8 8 10 15 16 18 20 21 23 24 27 26 25 26 27 26 26 27 36 34 30 35 10 11 18 20 12 11 8 5 3 2
36 26 28 25 22 22 19 16 12 9 8 8 11 13 15 21 19 20 19 24 26 27 26 27 29 36 40 39 40 36 38 44 18 15 15 18 18 18 14 10 10 8 6
34 31 28 19 21 16 18 17 11 9 9 9 11 18 20 27 30 21 32 28 27 30 30 33 35 36 47 42 36 34 28 30 21 14 24 17 15 16 16 14 12 13 12
39 30 35 25 20 24 12 15 10 8 7 8 11 22 25 21 21 20 30 32 33 32 37 33 36 35 32 33 36 28 28 14 16 17 23 22 20 18 17 16 15 13 14
31 32 38 28 24 35 17 5 8 14 13 15 13 18 12 9 12 23 28 28 30 34 30 28 27 28 25 31 13 21 9 11 21 17 24 24 26 26 24 22 19 19 18
34 33 34 33 27 37 20 6 9 9 10 8 8 12 16 3 10 17 28 26 30 24 29 21 12 17 18 20 16 18 19 17 17 19 22 22 26 24 23 19 16 20 17
36 32 33 37 35 28 21 18 21 22 12 6 10 2 5 10 6 7 8 2 12 16 6 7 17 21 19 18 13 13 19 12 17 22 13 14 17 23 25 18 25 21 22
36 40 33 44 50 35 24 34 30 32 24 31 18 14 14 16 8 5 7 4 3 3 13 4 8 9 12 9 13 17 14 19 11 16 19 16 9 9 19 19 26 22 21
43 48 37 45 56 50 36 40 42 37 37 33 29 10 9 15 4 2 10 5 7 3 8 3 3 5 6 11 13 9 15 11 18 14 19 20 22 19 9 12 15 20 24
47 49 53 45 48 50 46 41 37 36 29 28 20 11 12 14 4 11 4 5 8 17 12 12 8 8 2 3 8 8 14 11 14 19 10 19 20 25 21 19 18 21 24
45 52 53 40 41 47 46 36 24 22 33 18 16 11 10 9 8 10 6 7 14 8 5 1 3 6 6 7 9 4 7 6 9 6 14 11 16 16 21 23 24 29 32
40 47 48 42 38 40 37 29 34 36 29 22 17 15 10 8 8 8 10 8 7 8 6 7 10 14 9 14 12 14 14 3 6 3 7 2 7 12 18 20 18 18 27
37 39 40 37 39 35 41 43 41 35 26 22 16 11 11 9 8 8 2 7 1 10 7 13 18 15 19 13 14 18 20 7 9 12 2 6 8 1 11 18 20 11 22
35 32 37 39 45 48 43 39 41 23 24 20 16 25 24 20 14 3 5 12 4 10 21 22 24 15 10 16 22 16 26 24 28 20 9 6 14 10 19 10 14 15 24
39 33 33 38 43 46 38 37 33 25 22 27 32 30 35 31 18 3 3 10 9 15 17 24 19 17 11 17 19 25 21 27 26 23 24 14 11 21 11 18 11 21 12
43 44 34 36 42 42 37 37 37 32 27 35 35 32 36 34 20 30 12 12 11 15 12 17 13 20 16 5 19 15 10 15 12 28 28 18 22 27 17 19 10 14 20
31 33 34 30 32 30 37 43 35 24 34 34 27 27 30 32 32 29 27 17 11 21 14 21 14 16 13 8 9 20 15 24 10 8 10 20 19 5 7 9 8 12 15
24 23 20 22 25 25 27 27 19 23 16 33 22 18 24 31 35 21 32 21 12 20 25 21 21 17 10 12 3 11 11 17 14 19 23 14 19 12 13 6 11 14 12
8 11 16 17 16 16 15 19 26 15 22 30 18 20 27 25 25 26 26 22 18 21 18 17 25 17 25 19 19 11 9 15 17 12 16 24 13 20 26 18 10 6 13
Wind_Direction_850mb
151 155 148 142 133 119 111 108 106 102 94 84 75 71 72 65 52 39 35 29 24 20 19 14 11 8 6 7 5 6 10 21 28 32 33 41 44 22 22 49 44 352 9
158 150 149 144 134 122 117 109 104 104 98 90 82 69 55 45 38 29 24 22 21 20 17 11 3 357 353 352 353 352 355 10 26 49 52 30 356 25 8 326 338 4 15
153 154 149 146 135 125 114 110 107 103 101 108 82 59 41 30 28 27 28 21 18 9 6 358 352 345 341 340 341 344 350 6 27 48 45 20 205 37 14 340 321 346 345
133 158 147 144 132 124 122 120 113 110 108 86 63 42 27 29 35 36 29 21 11 3 359 354 348 345 341 339 340 346 2 29 58 63 35 59 83 31 351 336 340 356 335
132 157 143 141 132 131 126 121 122 129 114 80 43 29 40 47 43 28 20 17 11 5 2 359 352 353 351 347 350 4 41 86 78 44 3 272 357 318 335 340 280 324 338
137 158 145 139 133 132 132 123 134 132 97 59 38 52 61 47 28 18 18 16 12 7 5 5 3 2 1 6 18 38 80 89 43 24 147 263 330 312 330 349 41 238 260
152 154 148 145 141 138 130 140 144 115 84 68 73 64 44 30 19 18 20 17 14 12 12 13 15 12 10 18 37 69 91 87 57 98 4 48 356 352 351 33 75 141 220
151 162 157 147 139 135 130 151 120 112 87 77 72 45 30 23 18 18 22 17 17 19 20 24 30 32 34 45 66 97 82 66 56 39 10 11 341 3 14 19 34 24 338
133 149 153 148 143 143 152 134 127 108 97 78 53 40 29 28 13 18 26 15 20 27 33 41 53 52 52 70 84 92 79 58 85 99 59 30 17 33 37 33 28 17 350
143 140 145 158 150 160 160 148 132 109 88 66 54 49 52 29 9 15 13 10 26 38 46 57 60 59 58 67 78 81 56 67 72 37 4 39 16 15 18 31 24 11 357
152 149 155 147 142 150 167 144 132 110 77 61 61 61 54 33 356 337 11 19 38 48 53 61 56 51 50 52 56 62 60 75 44 26 48 49 47 40 39 40 37 34 13
158 160 153 144 156 165 180 125 121 65 75 56 29 70 31 219 213 315 1 10 28 29 40 40 45 41 33 42 21 41 89 330 335 45 66 69 70 64 63 69 72 78 71
160 152 154 146 158 167 184 113 65 84 114 217 215 106 218 274 333 360 346 4 11 9 23 21 356 72 72 75 55 53 15 354 25 31 76 70 66 69 71 64 71 70 55
163 163 165 157 168 151 168 130 162 190 186 212 211 151 66 58 291 199 229 46 12 329 12 352 360 59 83 68 58 69 60 45 15 35 38 48 67 73 72 60 69 56 43
166 168 174 172 178 173 175 166 181 190 174 201 226 204 207 193 234 256 295 65 226 37 350 13 349 83 36 68 90 74 68 60 47 16 43 40 25 56 83 71 61 38 18
176 180 187 192 185 187 164 194 189 189 202 211 211 224 229 230 201 115 46 66 327 250 218 186 196 76 41 37 40 72 88 100 79 7 11 28 40 26 5 41 37 20 8
185 188 191 192 193 190 186 197 209 213 211 217 235 250 270 242 197 146 161 104 280 272 252 221 197 111 117 333 74 44 55 67 128 90 6 17 18 16 43 33 27 33 43
187 199 199 188 195 194 192 205 186 211 219 232 253 262 295 252 236 143 115 222 245 275 16 215 162 277 216 231 237 140 28 61 36 113 151 93 2 15 8 24 35 26 24
191 204 201 185 203 201 195 186 197 225 227 240 250 269 294 263 243 192 166 246 311 152 235 226 248 216 251 231 254 219 172 177 144 203 95 20 121 337 346 2 2 21 20
198 201 196 188 208 203 204 198 209 223 239 260 253 242 247 232 234 151 212 345 284 114 260 231 223 217 215 223 259 191 177 224 219 262 19 215 303 118 311 339 330 340 358
193 196 189 189 209 219 216 212 223 236 258 279 258 228 223 188 214 143 31 333 63 153 233 233 246 245 226 247 234 249 280 280 220 209 245 195 279 315 277 251 312 4 335
192 197 210 202 214 221 228 229 239 241 276 276 279 245 231 206 193 33 325 245 251 221 256 259 229 198 255 266 252 264 278 243 242 203 205 226 271 246 270 270 249 293 274
200 194 213 207 221 229 238 247 245 255 282 277 279 259 238 226 204 215 318 257 273 220 273 289 255 207 200 234 293 254 330 7 321 214 205 253 238 264 236 252 327 292 309
183 186 212 221 239 241 237 259 260 253 291 291 291 269 243 231 257 231 265 275 240 196 235 263 227 218 247 215 282 322 264 293 318 318 270 235 274 303 206 309 266 291 303
161 192 222 231 246 244 244 245 251 274 258 281 296 240 236 253 243 221 248 258 256 229 231 230 227 239 200 213 221 300 293 306 297 295 298 283 286 241 253 231 264 318 347
159 214 248 238 205 215 243 260 237 237 262 287 282 240 265 246 235 231 242 255 253 233 255 244 240 231 206 216 220 224 248 302 313 299 304 306 294 300 258 265 293 295 265